Starlink 31218

operational
NORAD ID: 58895 Int'l Des: 2024-020 Owner: SPXS Country: US Constellation: starlink
LEOCIRCULAR

Starlink 31218について

説明を読み込み中...

リアルタイム位置

3D地球を読み込み中...

次回通過

高度履歴

Altitude vs Time

uPlot chart will show altitude changes over time

軌道要素

1 58895U 24020V 25259.13356324 .00000154 00000-0 17337-4 0 9998
2 58895 53.1611 53.3663 0001060 77.9535 282.1585 15.30192436 91345
Epoch: Sep 16, 2025 • Age: 15 hours

現在のステータス

高度 492.5 km
速度 7.62 km/s
衛星直下点 -48.53°S, 78.28°E
打ち上げ日 Jan 29, 2024
運用期間 1.6 years
タイプ internet

技術仕様

分類 Payload
質量 730.00 kg
乾燥質量 700.00 kg
総質量 730.00 kg
長さ 0.30 m
直径 4.10 m
スパン 29.00 m
形状 Box + pan
製造者 SPXS
バスタイプ Starlink V2M
フェーズステータス In Orbit
所有者/国 SPXS/US

大規模コンステレーション

Loading constellations...